Location: Bidart
(43.4376°N, 1.5913°W)
Time: 12:28:24
(UTC+00:00)

ISS - Pass Details

Date: 22 January 2026
Orbit: 413 x 429 km, 51.6° (Epoch: 11 February)

Event Time Altitude Azimuth Distance (km) Brightness Sun altitude
Rises 18:24:55 0° 298° (WNW) 2,365 0.9 -14.5°
Reaches altitude 10° 18:27:22 10° 316° (NW) 1,504 -0.5 -14.9°
Maximum altitude 18:30:00 21° 7° (N) 1,010 -2.0 -15.4°
Enters shadow 18:30:36 20° 23° (NNE) 1,040 -2.1 -15.5°
